Theta_e
339 346 348 351 352 355 355 356 357 358 354 338 342 349 352 360 356 356 353 349 348 348 344 341 341 343 346 343 344 345 345 348 347 343 341 348 350 349 350 349 349 350 351 351 351 351 349 347 345 346 349 350 351 351 351 351 350 349 348 347 349 350 350 348 348 349 349 349 349 351 351 352 352 352 351 351 350 350 352 353 353 352 351 350 350 349 347 347 346 347 348 349 350 352 352 351 351
349 351 350 352 354 357 357 357 357 352 346 337 342 351 353 361 356 352 350 349 349 345 341 340 343 346 348 345 342 343 345 345 345 346 346 349 348 349 349 349 349 350 351 351 351 352 349 343 344 348 350 352 352 352 351 350 349 348 347 347 349 349 349 349 349 349 348 349 349 349 350 350 351 351 351 350 350 349 350 352 352 352 350 349 349 348 347 348 347 347 348 350 351 351 351 351 351
351 351 352 353 355 356 358 358 351 344 345 343 345 356 359 360 356 352 352 350 345 339 340 343 346 348 346 345 344 344 345 343 342 343 346 348 348 349 349 349 349 350 352 352 351 353 350 342 345 350 351 353 352 352 352 351 349 348 348 348 349 348 349 349 350 350 349 348 347 348 349 349 350 350 350 349 349 350 350 351 352 350 349 348 347 345 347 349 348 348 350 352 352 351 351 351 352
351 353 353 353 356 356 360 362 354 343 342 340 341 357 362 359 356 354 353 347 341 337 344 348 348 350 349 348 346 345 346 344 344 344 346 348 348 348 350 350 350 351 351 352 351 352 349 343 347 351 352 353 352 353 353 352 350 349 348 347 348 348 348 348 350 350 349 348 348 349 349 349 349 349 350 349 349 351 351 352 352 350 349 348 347 346 349 350 349 350 351 351 351 351 351 351 351
352 353 353 355 360 359 362 364 357 344 340 339 343 358 361 357 357 355 352 344 340 341 347 349 348 350 349 348 346 346 345 344 346 345 347 347 347 348 350 350 351 351 352 351 351 351 347 344 349 351 352 353 352 353 353 351 350 349 348 348 348 348 348 349 350 349 348 348 349 349 349 349 348 348 349 350 350 351 351 351 351 351 350 348 348 348 348 350 350 350 350 350 350 351 350 349 348
352 354 354 356 358 357 361 357 348 345 350 355 354 359 360 357 358 355 349 342 342 346 349 348 347 347 347 346 345 344 343 344 346 346 347 347 347 349 350 351 350 351 351 351 350 351 347 346 351 352 352 353 352 352 352 350 349 349 349 349 349 350 350 350 350 348 347 348 349 348 348 348 349 349 349 349 350 350 350 350 351 352 350 349 350 348 348 350 350 349 350 349 350 351 349 347 346
353 356 356 358 359 359 359 350 344 348 357 363 359 360 361 358 357 353 348 344 345 348 349 348 346 347 349 346 345 346 345 345 346 346 347 346 347 349 350 350 350 350 351 351 352 350 347 348 352 353 353 353 353 351 351 349 348 350 350 350 350 350 351 350 349 348 348 348 348 349 348 349 349 349 349 349 350 349 349 350 351 352 351 350 349 346 347 349 349 349 350 350 352 352 349 347 348
354 356 357 360 363 362 356 350 352 356 358 361 360 360 361 358 356 353 348 345 347 350 349 348 345 349 350 346 347 348 346 346 347 347 346 346 347 349 350 350 350 351 351 352 351 348 346 349 352 352 352 352 353 352 351 349 349 350 350 350 349 349 350 350 349 348 349 349 349 349 349 350 349 349 348 348 349 349 349 349 350 351 352 350 347 345 345 347 348 350 350 350 349 351 349 348 349
354 357 358 360 362 357 351 353 357 361 362 361 361 360 361 358 355 354 350 347 348 350 350 347 346 350 350 348 347 346 347 348 348 347 345 344 347 349 350 350 349 350 351 352 350 348 348 350 351 352 352 352 352 352 351 350 350 351 351 349 348 348 348 349 350 349 349 349 350 349 349 349 349 349 348 348 348 348 349 348 348 350 350 350 348 346 346 346 348 349 350 348 346 347 347 347 347
356 358 359 362 359 348 344 353 356 360 364 361 361 361 360 357 356 358 354 349 349 350 350 346 347 350 348 347 346 344 347 348 347 346 345 344 347 349 350 349 349 349 350 351 351 349 348 349 350 351 352 352 352 353 350 349 350 351 351 350 350 350 349 349 350 350 349 349 349 349 349 348 347 348 348 348 348 347 348 348 348 350 349 349 348 347 347 346 347 347 348 349 347 346 345 346 346
360 357 359 360 348 341 345 352 355 361 364 360 361 360 360 358 357 359 357 351 349 350 348 347 349 348 347 347 346 346 346 345 345 346 345 345 347 349 349 348 349 349 350 351 351 350 348 349 350 350 352 353 352 352 350 349 350 351 351 350 351 351 350 349 349 349 349 349 349 349 348 348 346 347 348 348 348 347 348 349 349 350 349 347 347 347 347 346 345 345 347 350 350 347 346 346 345
359 358 360 356 345 348 353 351 356 363 363 362 362 360 359 359 358 359 358 354 351 350 347 349 349 346 347 348 347 346 345 344 344 345 346 346 348 349 348 349 348 349 351 351 351 351 350 351 351 350 351 352 351 351 351 350 350 350 350 350 350 350 350 349 350 350 349 349 348 349 348 348 347 347 347 347 348 348 348 348 348 349 348 347 346 347 346 345 345 345 346 348 350 348 346 345 345
357 357 359 357 353 359 356 353 361 363 360 363 362 361 359 359 360 358 358 355 352 350 347 348 347 345 347 347 346 344 345 346 345 346 347 347 348 348 348 349 349 350 352 351 351 351 349 350 353 352 351 352 351 350 352 351 349 349 349 350 349 349 349 349 350 350 349 349 349 349 349 349 348 346 347 348 349 348 347 347 348 348 348 348 346 346 345 345 345 346 347 346 349 349 346 345 345
355 356 359 359 359 361 358 357 359 357 358 362 361 360 359 358 359 357 357 356 354 352 349 347 345 346 347 347 346 343 344 347 346 347 349 349 348 348 348 349 350 351 351 351 351 350 348 349 352 353 353 354 352 351 351 350 350 349 350 350 349 349 348 348 349 349 349 349 349 349 349 349 349 347 348 349 348 347 347 347 348 348 348 347 346 346 346 346 345 345 346 347 349 350 348 347 346
353 355 358 360 357 359 360 358 357 357 359 362 360 360 360 359 357 357 356 357 357 350 347 348 345 347 346 346 346 343 346 347 347 349 350 349 348 348 349 349 350 350 351 351 350 348 347 350 352 353 353 354 353 351 349 349 349 349 349 349 349 349 349 349 349 349 348 349 349 349 349 349 349 348 348 347 346 346 347 347 349 349 347 346 346 347 347 346 346 345 346 349 350 349 348 347 345
351 354 360 360 353 355 360 359 360 360 361 360 359 359 360 358 355 357 356 355 354 347 347 348 345 347 345 343 344 345 347 348 349 350 350 349 348 349 349 349 349 350 351 351 349 348 349 351 352 353 353 353 353 351 348 349 349 349 349 349 350 350 349 350 350 350 349 349 349 348 349 349 350 349 348 347 348 347 347 348 349 349 348 347 347 347 348 346 346 348 349 350 349 348 347 346 345
350 356 363 357 352 355 359 361 360 359 360 360 359 359 359 358 356 356 355 352 351 350 350 347 345 345 342 343 346 347 349 350 350 350 349 349 349 349 349 349 349 349 351 351 350 349 349 352 354 353 353 352 352 351 349 348 348 349 350 349 350 350 350 349 350 350 349 350 349 348 349 349 350 350 350 349 350 350 349 350 349 349 348 348 348 348 349 348 348 350 350 350 349 347 346 346 344
351 359 359 352 354 361 362 364 361 360 361 361 361 359 359 360 357 354 353 353 352 352 351 348 347 346 345 347 348 348 350 350 350 349 349 349 348 348 348 349 348 348 349 350 349 350 350 352 354 353 353 353 354 353 351 347 346 347 349 349 350 349 349 349 349 348 348 349 349 350 350 348 348 350 351 350 349 350 350 349 349 349 349 349 349 349 349 348 349 350 350 348 348 350 351 350 347
353 359 357 353 359 363 361 363 362 361 361 361 361 359 358 359 356 354 355 355 353 352 352 348 348 347 348 348 348 349 350 350 348 347 348 348 348 348 348 348 348 348 348 348 349 349 350 353 354 353 353 353 354 354 352 350 347 346 348 350 350 350 349 348 347 347 347 348 349 352 352 351 349 350 351 350 350 350 349 349 350 350 350 350 349 349 348 349 350 349 348 349 350 352 354 353 352
355 359 362 359 360 360 359 362 363 361 359 361 361 358 358 357 354 354 355 355 354 354 352 349 349 348 346 347 349 349 349 349 347 346 347 347 347 347 348 348 348 347 347 348 349 349 350 354 355 354 354 353 354 354 353 353 352 350 350 351 352 352 351 349 347 345 345 349 352 353 352 351 350 349 350 350 350 350 349 349 349 350 351 351 349 349 349 350 350 349 350 352 352 353 352 351 349
355 359 362 360 359 358 358 361 362 360 359 361 360 359 359 357 354 355 355 355 355 355 350 348 348 347 346 345 348 349 349 349 347 346 346 347 347 346 347 347 347 348 347 348 350 349 349 353 355 354 355 354 354 354 353 353 353 353 352 352 352 353 353 352 352 349 348 352 354 353 352 351 351 351 351 352 351 350 349 349 350 349 350 351 351 350 351 351 352 352 352 352 351 350 349 349 348
356 359 358 358 358 360 360 361 361 359 359 360 359 360 359 357 357 356 356 355 355 352 347 346 346 345 345 344 347 348 348 348 348 347 347 348 347 347 347 347 347 348 348 349 350 349 348 351 353 353 355 356 355 354 353 354 353 353 352 351 351 353 353 353 354 353 354 355 354 353 353 352 352 352 353 353 353 352 351 350 350 349 350 351 352 352 353 352 352 351 350 348 347 346 346 347 348
357 357 354 357 358 361 362 360 359 359 360 361 360 359 358 358 359 356 357 357 353 350 346 345 345 346 346 346 348 347 346 348 348 347 347 347 347 348 348 347 348 348 348 349 349 349 348 349 351 351 353 355 355 355 354 354 353 353 351 351 351 352 353 353 353 354 355 356 354 353 353 352 352 352 352 352 351 350 349 349 349 349 351 352 352 351 352 351 349 348 348 347 346 344 345 346 346
356 357 354 356 359 362 362 360 359 358 360 362 360 360 360 360 358 357 358 357 352 350 348 347 347 348 348 347 347 346 347 348 347 347 347 347 347 347 347 348 348 348 348 349 349 349 349 349 351 351 352 353 354 355 355 354 354 352 351 350 350 351 352 352 352 354 354 355 354 354 352 351 349 348 348 348 348 347 347 348 349 350 350 351 350 350 350 349 349 350 350 349 347 346 345 345 345
356 359 356 357 359 361 361 360 359 360 362 362 360 362 362 359 357 358 358 355 351 349 348 347 347 347 347 345 345 348 349 348 348 347 347 347 347 347 347 347 347 348 348 349 349 349 349 349 350 351 351 352 353 354 354 355 354 352 351 350 350 351 351 352 352 352 352 352 353 353 351 348 346 346 346 346 347 348 348 349 350 350 350 350 350 349 350 351 351 351 351 350 349 347 345 345 345
354 358 358 358 360 360 360 360 360 362 363 361 363 365 362 358 357 360 358 352 349 348 347 346 346 346 346 345 345 349 350 349 349 347 347 346 347 348 347 347 347 348 348 349 350 350 350 350 350 350 350 351 351 352 354 355 354 352 351 351 350 350 351 352 351 351 351 351 352 353 350 347 345 346 347 347 348 350 350 350 349 349 349 349 349 350 351 352 352 351 351 350 350 349 346 346 345
351 356 358 359 360 361 360 360 362 362 362 362 364 365 363 358 359 361 357 352 349 348 348 346 345 346 345 345 346 349 349 349 348 346 346 346 347 347 346 347 347 348 348 349 350 351 351 350 350 351 351 351 351 351 353 354 354 352 352 351 350 350 351 351 350 349 350 350 351 352 351 348 347 347 348 348 349 349 349 349 348 348 349 349 350 351 352 353 353 352 353 353 353 351 348 347 345
351 355 358 360 361 362 361 361 362 361 363 362 362 364 363 359 361 361 356 352 350 349 349 346 345 345 345 345 346 348 348 347 347 345 346 346 346 346 346 347 348 349 348 349 351 351 351 350 351 351 351 351 350 351 351 352 353 351 351 351 350 351 351 349 349 349 349 349 350 351 352 351 350 350 350 349 349 349 348 349 349 349 349 350 352 353 355 355 354 354 355 356 355 353 350 349 347
352 354 358 361 363 364 361 361 361 361 363 361 361 361 362 363 362 359 355 352 352 352 350 347 346 345 346 346 345 348 348 348 347 346 345 346 346 345 345 346 348 348 348 349 351 351 351 350 351 351 351 351 351 350 350 351 351 351 351 350 351 351 350 348 349 349 348 349 350 351 352 352 351 351 351 350 349 349 350 349 349 350 350 352 354 356 356 355 355 354 354 355 355 352 350 350 349
353 353 356 358 358 362 362 361 361 361 361 360 361 355 355 364 362 357 356 353 353 354 350 348 347 345 345 345 345 346 349 349 347 346 346 346 346 345 345 345 347 348 349 349 350 351 352 351 351 352 352 351 351 351 351 350 350 351 350 350 351 350 349 349 349 349 349 349 350 352 352 353 352 352 352 351 351 350 351 351 350 351 353 354 355 356 356 354 355 355 354 354 354 352 352 352 351
355 353 353 353 348 352 363 361 360 364 359 358 362 356 356 364 362 358 357 355 354 353 351 349 346 345 345 345 345 345 348 350 349 348 347 347 346 345 346 346 347 348 350 350 350 352 352 351 352 352 352 351 351 351 350 350 351 350 350 350 350 350 349 349 349 349 350 350 351 352 353 354 354 354 354 354 353 352 351 351 352 353 355 355 355 357 356 355 356 356 355 355 354 354 352 352 353
355 352 347 346 346 351 365 361 359 364 360 358 361 360 363 364 361 359 357 356 355 353 351 349 346 345 345 345 345 345 347 350 349 349 348 347 347 346 347 347 347 349 350 350 351 353 352 352 352 351 352 351 351 351 351 350 350 351 350 350 350 350 350 349 350 350 350 350 351 353 354 354 355 355 355 355 354 353 352 352 353 354 356 356 355 357 356 356 357 356 356 356 355 355 353 352 353
354 354 341 338 344 348 359 360 359 361 360 361 360 362 368 366 361 359 358 358 357 355 352 350 347 345 345 345 345 346 347 349 350 351 350 349 348 347 348 348 348 349 350 351 353 354 353 353 353 352 351 351 351 351 351 350 350 350 351 351 351 350 350 350 351 351 351 352 352 353 355 355 355 355 355 356 355 353 352 352 353 355 356 355 356 357 357 356 357 356 356 356 356 357 354 352 352
342 349 340 339 345 343 349 358 359 358 360 363 362 365 367 365 362 359 358 359 358 357 354 351 349 346 346 346 346 348 348 348 350 352 352 351 349 347 349 349 349 350 351 352 354 354 354 353 353 352 351 351 351 351 351 350 350 350 351 351 351 351 351 350 351 352 353 352 354 354 356 356 355 356 355 355 355 352 352 353 353 355 355 355 356 357 356 356 356 357 357 356 356 358 355 353 352
334 337 335 338 344 341 345 354 358 359 360 363 364 365 365 364 363 360 358 358 358 357 355 351 349 348 347 347 347 348 348 348 351 353 353 352 351 350 350 350 350 351 352 353 354 354 354 353 354 353 352 351 351 351 350 350 349 349 351 351 352 352 352 352 352 353 353 353 354 355 356 356 355 355 355 355 356 353 353 354 355 356 355 356 356 356 356 356 356 357 357 357 357 358 357 355 352
339 342 338 335 337 340 348 355 356 359 359 364 365 362 365 365 363 362 358 358 358 357 355 353 352 350 348 348 347 348 348 348 351 353 352 352 352 352 352 352 352 352 353 354 355 355 354 354 354 353 352 351 351 351 350 350 350 349 350 351 352 352 352 353 352 352 353 353 354 355 356 357 356 356 355 355 356 355 355 356 356 356 356 356 357 356 356 356 356 358 357 357 359 359 356 354 351
343 346 342 339 337 339 351 360 357 356 357 360 363 361 363 365 364 362 359 358 358 357 357 355 353 353 350 348 348 349 349 349 352 353 352 353 353 353 354 353 354 354 354 356 356 355 355 355 355 354 353 352 351 351 351 351 351 351 351 351 351 352 352 352 352 352 352 353 356 357 356 356 356 357 356 357 357 356 355 356 357 357 357 357 357 356 356 357 357 358 358 357 358 358 356 353 351
342 341 339 336 336 342 353 358 356 354 356 358 362 362 361 363 364 363 359 358 358 356 357 356 353 353 352 350 349 350 349 349 351 353 353 353 353 353 354 354 355 355 355 356 356 356 356 355 355 354 353 352 352 352 353 352 352 351 351 351 350 350 352 352 352 352 352 354 356 357 357 357 357 358 357 358 358 357 356 357 358 358 358 357 357 357 357 357 358 358 358 357 357 357 356 354 353
338 338 336 330 334 345 349 356 358 354 356 358 361 361 361 362 363 362 361 358 357 357 356 356 355 353 352 351 350 349 349 349 349 350 352 352 352 353 354 354 354 354 355 356 356 356 356 356 356 355 354 353 353 353 354 353 353 352 351 351 350 350 352 352 353 354 354 354 355 357 358 357 357 358 357 357 357 357 357 358 358 358 358 357 358 359 357 357 358 358 358 357 358 357 355 354 354
332 334 332 327 333 338 337 349 360 355 355 358 359 360 363 364 362 362 362 359 357 357 357 357 356 353 353 351 350 349 349 350 348 347 350 351 351 353 353 353 353 354 354 355 356 357 356 357 357 356 355 354 354 354 354 354 354 354 354 352 352 352 353 353 354 355 355 355 355 356 357 357 357 358 357 357 356 357 357 357 357 357 357 357 358 358 357 357 358 358 357 357 357 357 355 353 354
327 332 332 327 330 333 335 348 359 355 354 358 358 352 354 361 362 362 362 361 360 357 356 356 356 354 353 351 350 350 348 349 348 346 347 349 349 351 353 353 353 352 354 354 355 356 356 357 358 357 356 355 355 355 355 355 355 354 353 353 352 353 353 353 353 354 355 355 355 355 356 356 357 357 358 357 356 356 357 357 357 357 357 356 357 357 357 356 356 357 357 357 358 357 356 355 353
321 328 333 329 328 332 338 350 353 344 343 352 354 343 344 354 360 362 362 362 361 357 356 355 356 355 354 352 351 350 348 347 348 346 346 347 348 350 352 353 353 352 352 353 353 355 355 357 359 358 358 357 356 356 356 356 355 353 352 352 352 352 352 351 352 352 353 353 353 354 355 355 356 357 357 358 357 357 357 358 357 357 357 356 357 358 357 356 355 355 355 357 358 357 358 358 354
317 323 330 331 329 331 335 342 340 332 336 353 354 344 343 350 355 361 362 362 362 359 358 355 356 357 355 354 351 349 349 346 347 347 346 347 348 349 352 352 352 351 351 352 352 354 356 357 360 359 359 359 358 357 357 356 356 354 353 352 352 352 351 351 352 351 351 352 352 354 355 355 356 356 357 358 358 358 358 358 358 358 357 357 358 358 357 356 355 355 356 357 358 358 359 359 357
317 322 328 330 327 329 334 335 331 331 338 350 352 345 343 344 351 360 361 360 362 360 358 356 356 356 355 354 352 349 349 347 346 346 346 347 348 348 350 351 351 350 349 350 351 354 356 358 360 360 359 360 359 358 357 357 356 356 354 353 353 352 350 351 352 352 352 353 354 355 355 355 356 357 357 358 358 358 358 358 359 358 358 357 358 357 356 356 355 356 358 357 357 359 359 360 358
321 323 325 326 325 329 335 332 328 333 336 335 341 343 342 342 350 360 363 359 362 362 359 359 356 355 355 354 353 350 349 348 346 345 346 347 347 348 348 349 349 349 348 349 351 353 355 359 361 360 359 359 359 359 358 357 356 357 356 354 355 354 351 351 351 351 353 355 356 357 357 356 357 357 357 358 358 358 358 358 359 359 358 357 357 356 356 356 357 359 359 358 359 360 359 359 359
324 326 327 326 327 329 336 335 329 332 334 330 334 339 338 340 347 356 360 356 358 362 360 359 356 354 356 354 352 352 349 349 346 346 348 347 347 348 348 348 349 348 348 348 350 352 355 358 360 360 359 359 360 359 359 358 357 357 357 356 357 355 352 353 352 353 356 358 358 359 359 358 358 357 357 357 358 358 358 358 358 359 358 357 356 357 357 357 358 360 359 359 359 360 359 359 359
323 326 331 330 332 335 336 335 331 330 331 330 333 336 334 337 344 351 356 356 357 359 359 362 360 354 355 355 352 351 350 350 348 346 348 348 347 348 347 348 349 349 349 348 349 351 353 357 359 360 359 359 359 359 359 358 357 357 357 357 358 356 354 355 355 356 358 360 359 358 359 358 358 358 357 358 357 357 358 358 358 358 359 358 358 358 357 358 358 359 359 359 359 360 360 359 359
323 326 330 329 331 335 332 330 330 328 328 330 334 337 333 332 339 349 356 357 355 355 358 363 362 357 354 354 352 351 350 349 348 347 347 347 347 347 347 348 349 350 350 349 349 350 353 355 358 359 360 359 360 359 359 358 358 357 356 357 358 357 356 357 357 358 359 359 358 358 360 359 359 358 356 357 357 356 357 358 357 358 359 359 359 359 359 359 358 358 359 360 360 360 360 359 359
325 325 325 324 327 333 332 329 327 324 325 331 334 336 333 331 338 348 355 354 353 354 355 360 362 358 354 354 353 352 351 349 348 347 346 347 348 348 348 348 350 352 352 351 350 349 352 355 357 359 360 360 359 359 359 358 358 357 356 357 357 357 357 358 358 358 358 358 357 359 360 359 359 358 356 356 355 355 356 358 358 360 360 361 361 361 360 360 360 360 360 360 360 360 360 360 359
322 320 320 322 326 332 333 329 326 323 323 328 335 337 331 330 340 352 354 352 352 353 352 354 358 356 353 353 353 352 352 349 348 347 346 347 349 348 349 349 351 353 354 353 351 350 352 355 357 358 360 361 359 359 359 358 358 358 357 357 357 357 358 358 358 357 357 358 358 358 358 357 358 358 357 355 355 356 356 357 359 361 362 362 362 362 362 363 362 361 361 361 360 360 360 359 359
321 323 325 321 321 327 328 325 324 323 321 325 334 334 326 327 341 353 351 350 351 350 350 351 354 354 353 352 353 352 352 351 348 347 346 348 349 349 349 350 352 353 354 353 352 352 354 356 359 358 359 361 359 358 358 358 358 357 357 357 357 357 357 357 356 357 358 358 358 358 358 357 357 357 357 357 356 357 357 358 360 360 362 363 362 362 362 363 362 361 362 362 361 360 360 359 358
321 323 321 319 320 324 323 322 322 321 322 326 329 328 329 338 350 354 351 351 351 350 350 351 353 355 354 353 353 353 352 351 349 347 347 348 349 350 350 350 352 353 354 353 353 355 357 358 360 359 359 359 359 358 358 357 357 357 358 358 357 357 357 356 356 357 358 358 358 358 358 358 357 357 358 357 357 357 357 358 359 360 362 362 362 362 362 363 363 362 363 362 361 360 360 360 359
320 319 315 320 327 327 321 319 321 321 322 325 323 323 329 338 346 352 355 354 352 351 349 350 353 355 356 355 353 352 352 352 351 349 349 350 350 350 350 350 351 352 353 353 355 356 358 359 360 360 359 358 358 358 357 357 357 357 357 358 357 357 356 355 355 356 356 357 358 359 358 358 357 357 357 357 357 358 357 358 359 359 361 361 362 362 361 363 364 362 363 363 361 360 361 360 360
319 315 316 323 327 328 324 321 321 322 321 321 320 321 322 324 334 350 359 357 355 354 350 351 354 355 356 356 354 354 353 352 351 350 351 352 351 351 351 350 350 351 352 354 356 357 359 359 359 358 358 357 357 357 356 356 357 357 357 358 357 356 356 354 353 354 355 356 357 358 357 357 357 356 357 357 358 358 358 359 359 360 361 361 362 361 360 363 363 361 363 363 361 361 361 360 360
321 319 322 321 318 318 320 320 321 321 320 319 319 321 319 318 328 346 356 358 358 357 355 354 355 355 356 355 354 354 354 352 352 352 351 351 352 352 352 351 350 351 353 354 356 357 359 359 358 355 356 356 355 355 354 356 356 355 356 357 356 356 356 355 354 354 355 355 356 356 356 357 357 357 358 358 358 358 358 359 359 360 360 360 361 360 361 363 362 361 362 361 360 361 361 360 360
322 322 324 321 318 317 317 319 319 318 318 318 318 319 318 323 338 351 358 361 360 359 359 357 355 355 356 355 354 355 356 355 353 351 351 352 352 352 353 353 351 351 354 355 356 358 358 358 358 356 354 355 355 353 353 355 355 354 354 355 356 356 356 355 355 355 355 356 356 356 356 356 356 357 358 358 358 357 358 358 358 358 358 358 360 359 360 362 363 362 362 360 360 362 361 360 360
318 317 318 317 317 318 318 318 317 316 316 317 319 317 318 336 359 362 360 361 360 360 360 358 355 354 354 354 354 355 355 354 353 352 353 352 352 351 352 353 353 353 355 355 356 357 357 358 358 357 356 355 355 353 353 355 355 353 354 354 355 356 356 355 355 355 356 356 356 356 355 355 356 356 357 358 358 357 357 357 357 357 357 358 360 361 360 361 362 363 362 360 361 362 361 361 360
320 317 316 316 317 315 316 316 315 316 315 315 318 316 323 346 360 358 358 358 358 360 359 357 355 354 354 354 354 354 354 353 352 353 354 352 352 352 351 353 353 354 355 356 357 357 357 358 358 358 358 356 355 354 354 355 356 354 354 354 354 354 355 355 354 355 355 355 355 356 356 355 356 356 357 357 357 357 357 357 357 357 358 359 361 362 361 360 361 363 362 360 359 361 361 361 360
Wind_Speed
8 8 7 7 6 4 4 4 2 3 3 4 5 3 5 6 7 9 10 10 8 7 7 10 10 7 3 5 7 8 9 5 5 2 5 9 16 17 13 14 16 15 13 12 11 11 11 12 11 8 6 8 10 11 12 12 11 9 8 7 7 8 8 8 9 11 11 11 10 10 11 11 11 12 13 13 14 14 15 16 16 17 18 19 18 18 19 18 17 17 17 17 17 16 16 16 16
8 8 8 6 6 4 1 2 2 2 3 5 5 4 7 6 8 10 11 9 8 10 11 10 8 6 4 5 6 7 9 10 8 7 9 16 18 14 15 15 16 15 13 12 12 12 11 11 11 8 6 9 11 12 13 12 10 8 7 7 9 10 9 9 10 11 10 10 11 11 11 10 11 12 12 12 13 14 14 15 16 17 19 19 18 17 17 17 17 17 17 17 16 16 16 16 16
8 7 7 6 6 5 1 3 2 0 2 5 5 5 7 7 9 10 9 9 12 15 13 9 8 5 4 7 5 5 7 8 10 11 11 17 15 13 16 15 15 14 13 12 12 12 11 10 10 7 8 10 11 13 14 13 10 8 7 9 10 10 10 11 11 12 10 10 12 12 11 10 11 13 12 11 14 15 14 15 15 16 19 20 18 18 17 17 17 16 16 16 16 16 16 16 16
7 6 6 5 5 4 2 2 2 2 2 5 6 7 7 8 12 11 10 12 15 16 11 9 8 3 3 9 6 5 8 8 11 11 10 13 14 16 16 15 15 13 12 12 12 12 11 11 9 7 9 11 12 14 14 13 9 8 9 10 11 11 11 12 13 13 11 11 13 13 12 11 11 12 12 12 14 15 14 14 14 16 18 19 18 18 18 17 17 16 16 16 16 17 16 16 16
6 5 6 6 3 1 1 2 2 2 3 4 6 8 9 10 13 12 11 14 14 13 10 8 8 5 6 8 4 4 8 9 10 12 12 13 16 18 16 15 14 13 13 12 13 12 11 11 9 8 10 12 13 14 14 13 9 9 11 11 10 11 11 13 14 11 10 12 13 13 12 12 12 12 13 13 14 14 13 14 15 14 17 18 17 17 18 17 16 16 16 17 17 17 18 17 17
6 5 7 6 2 0 2 2 2 3 5 4 6 9 11 12 12 13 14 15 13 11 9 7 8 9 8 9 7 7 7 9 10 12 13 16 18 17 16 15 13 13 13 13 12 12 12 10 8 9 11 12 13 14 15 13 10 10 12 11 10 11 12 14 13 10 10 13 14 13 13 13 13 12 13 13 13 13 13 14 15 14 16 17 16 17 17 16 16 16 17 18 17 17 18 18 18
4 4 4 4 2 2 2 2 3 5 5 3 7 11 12 14 12 14 16 15 12 9 7 7 10 10 8 6 8 9 7 9 10 11 14 18 18 16 15 14 13 14 13 12 13 13 12 9 9 10 11 12 13 14 14 11 11 12 12 11 11 12 13 15 13 10 11 13 14 14 14 13 13 12 12 13 13 14 14 14 14 14 15 15 15 16 17 17 17 17 16 17 16 16 18 18 18
5 4 2 2 3 3 1 4 4 4 5 5 9 11 13 15 13 14 16 14 11 9 8 9 9 8 7 5 7 8 8 10 11 13 17 19 17 15 14 13 14 14 13 13 13 13 11 9 10 10 12 12 13 14 12 10 12 13 12 12 12 13 14 15 13 12 13 13 13 14 14 13 13 13 12 13 14 15 15 15 14 14 14 15 15 16 17 18 18 17 16 16 16 15 16 17 17
5 3 3 4 2 2 2 5 4 5 7 8 10 11 13 14 13 14 14 12 11 10 10 9 6 7 9 9 9 8 9 11 13 16 17 18 16 14 13 13 14 14 13 13 13 13 10 9 10 10 11 12 13 14 12 10 12 13 13 13 14 14 14 15 14 13 14 13 13 14 15 14 13 14 14 14 15 16 15 14 15 14 14 14 15 16 18 18 17 18 17 16 15 15 15 16 16
3 1 3 4 3 3 4 4 4 7 9 9 10 12 12 13 13 12 12 13 12 11 11 8 7 10 11 11 10 8 10 13 16 16 16 17 15 13 13 14 14 13 13 12 13 12 10 9 9 10 11 12 13 14 12 11 13 14 13 14 15 15 15 16 15 15 14 14 14 16 16 15 14 16 16 15 16 17 16 15 15 14 14 14 15 16 17 17 16 18 17 15 15 15 15 15 15
2 2 3 3 3 2 5 5 6 8 9 9 10 11 10 12 12 10 11 13 11 11 11 8 10 13 12 11 8 8 13 15 16 15 15 15 14 13 13 13 13 12 12 12 12 12 11 9 9 10 11 12 13 15 12 12 14 15 14 14 14 15 15 16 17 16 15 13 15 17 18 16 15 16 17 17 17 17 17 17 16 15 14 15 16 15 16 16 17 17 15 14 15 16 15 15 15
2 2 3 3 3 1 5 6 8 8 9 9 10 9 8 10 10 11 12 12 12 12 11 8 9 11 11 10 7 10 15 14 15 15 14 14 13 13 13 13 12 12 12 12 11 12 11 9 10 9 10 12 14 15 13 12 13 13 14 15 14 14 15 16 17 17 16 14 15 18 19 19 17 16 17 19 19 18 18 18 17 16 15 16 16 16 16 16 17 16 13 14 17 15 15 15 15
3 3 3 3 4 2 5 7 7 8 8 7 9 9 8 10 10 11 12 12 12 11 10 9 9 10 10 9 8 11 14 14 15 15 14 13 13 13 13 13 12 12 11 11 11 11 10 9 10 9 10 13 15 16 13 13 13 13 15 15 15 15 15 17 18 18 17 16 17 18 20 22 20 18 19 20 20 20 20 19 18 17 17 16 17 17 15 15 16 15 13 15 17 14 14 15 15
2 3 4 2 2 2 5 7 8 7 6 7 9 9 8 7 9 10 11 13 11 9 11 10 9 9 10 10 8 9 12 16 16 15 14 13 13 13 13 13 12 11 10 10 10 10 9 8 9 9 10 12 15 15 13 13 14 14 14 16 17 16 16 17 19 19 19 18 19 19 21 23 22 21 20 20 20 21 21 20 18 18 18 17 18 17 16 15 15 15 15 14 14 14 14 15 15
2 2 3 3 2 2 3 5 8 7 6 9 10 9 8 7 9 10 10 11 9 8 10 10 8 7 10 11 8 10 15 18 17 15 14 13 14 13 13 13 12 11 10 10 9 9 8 8 8 9 10 11 13 13 11 14 15 15 15 16 17 17 17 17 19 21 21 20 20 20 21 23 23 22 22 21 20 20 20 20 18 17 18 17 17 18 16 16 15 15 14 12 13 15 15 15 15
2 2 2 2 2 3 3 5 8 6 6 10 10 10 10 9 9 8 7 8 10 10 8 8 6 3 10 12 12 17 20 19 17 16 15 14 14 13 13 12 11 10 9 9 8 8 8 8 8 8 10 11 14 14 11 13 15 16 16 16 17 18 18 17 19 21 22 21 20 21 21 22 23 22 23 22 20 19 19 19 19 17 18 18 17 18 16 16 16 13 11 12 15 16 16 16 15
2 3 2 2 1 3 4 5 7 7 9 11 10 10 12 11 9 7 7 8 11 11 7 7 5 4 10 13 18 23 21 19 18 17 16 15 14 13 12 11 11 10 9 8 7 8 7 8 8 8 10 11 15 15 12 12 13 15 15 16 17 18 18 18 19 20 21 21 21 22 21 20 21 21 20 22 21 20 19 19 20 19 19 18 18 18 16 15 14 11 10 13 16 17 16 16 15
3 3 2 1 1 2 2 3 5 8 12 11 11 11 12 13 10 9 9 10 11 11 9 9 8 9 14 19 22 23 20 20 18 18 16 14 13 12 12 11 10 9 8 8 7 7 7 8 8 8 10 11 14 14 13 11 11 13 15 16 16 18 19 18 18 19 21 22 21 21 18 17 19 19 17 19 21 20 20 20 21 20 19 19 18 18 17 15 12 10 10 13 16 16 14 12 12
3 4 2 2 4 3 3 3 5 8 12 12 10 11 11 13 12 9 10 11 11 11 11 11 13 15 18 21 22 21 19 19 18 18 16 14 13 12 12 10 9 9 8 8 7 7 7 7 7 8 10 11 12 13 14 11 9 10 13 15 16 19 20 18 17 18 20 22 21 19 17 15 16 16 16 17 19 19 18 19 20 19 19 18 17 17 17 14 11 11 12 14 14 13 10 9 9
2 3 2 4 4 6 6 3 4 8 12 12 10 11 11 12 11 9 11 13 12 11 11 12 15 17 19 20 21 21 19 18 18 17 16 14 13 12 11 10 10 9 8 8 8 7 7 7 7 8 9 10 11 12 13 12 9 8 9 11 13 16 18 18 18 17 19 20 18 16 16 18 18 17 17 18 18 17 17 18 18 17 16 16 16 16 14 12 11 11 12 11 10 9 9 9 9
1 3 4 5 3 6 8 3 5 10 12 11 11 12 12 12 9 9 12 12 9 9 11 13 17 20 20 20 21 20 18 18 17 15 15 14 12 11 10 9 9 8 8 8 8 7 7 7 7 8 9 9 10 10 11 12 10 8 8 8 11 13 14 17 18 18 17 15 14 14 15 17 17 16 15 15 16 15 15 16 15 14 14 14 14 13 11 10 9 8 8 9 8 9 9 9 9
2 3 5 6 5 6 7 4 8 11 10 10 12 12 12 10 9 11 10 6 7 8 10 14 18 20 21 21 21 19 18 17 16 15 15 14 12 11 10 9 8 9 8 8 8 8 7 7 7 8 9 9 9 10 10 11 10 9 9 9 10 11 12 14 16 16 16 13 13 14 13 14 13 13 12 12 13 13 13 13 13 13 12 12 11 10 9 8 8 7 8 8 8 9 9 9 8
1 5 6 6 7 7 7 7 9 10 10 10 10 10 11 11 10 9 6 6 8 9 10 15 18 19 21 21 20 18 17 16 16 15 14 14 13 11 10 9 8 8 7 8 8 8 7 7 7 8 9 9 9 9 10 10 10 10 11 10 9 10 11 12 13 14 14 13 13 13 12 12 11 11 11 11 11 11 12 12 12 12 11 10 9 8 8 8 8 8 8 8 8 8 9 8 8
2 5 7 7 9 8 8 8 9 9 9 9 8 10 11 11 11 8 6 9 10 10 12 16 19 20 20 19 18 17 17 16 15 15 13 13 12 10 10 8 8 8 7 8 8 8 7 7 7 7 8 9 9 9 9 9 9 11 11 10 10 10 10 11 12 13 13 12 12 12 12 12 12 11 11 11 11 11 12 12 11 11 10 9 8 8 8 8 7 7 8 8 7 7 8 8 8
2 4 7 7 9 9 9 8 9 9 7 7 9 10 9 9 9 8 8 10 11 13 14 16 19 19 17 16 16 16 16 16 15 14 13 11 11 11 9 8 8 7 8 8 7 8 8 8 7 7 8 8 8 9 9 9 9 10 11 11 11 10 10 10 11 11 11 11 11 11 11 12 13 12 11 11 11 11 11 11 10 9 9 8 7 7 7 7 7 7 7 8 7 7 8 8 7
2 4 6 8 10 9 10 9 8 8 6 7 10 10 9 9 9 8 8 10 13 14 15 17 18 17 16 15 15 15 15 16 15 14 13 11 11 11 10 9 8 7 8 8 8 8 8 8 7 7 7 7 7 8 9 9 8 10 11 10 10 10 10 10 10 11 11 11 11 11 12 12 13 13 12 12 11 11 10 9 9 9 8 7 7 7 6 7 7 7 7 8 7 7 8 7 7
4 5 8 9 9 9 9 10 7 7 7 7 8 9 10 9 4 5 8 10 14 15 15 16 16 16 15 14 14 15 15 15 15 14 13 12 12 11 11 9 8 8 8 8 8 8 8 9 8 8 8 7 7 8 9 9 8 10 11 10 9 10 10 10 10 11 11 11 12 12 12 12 12 13 12 12 11 10 9 9 8 7 7 6 6 6 6 7 7 7 7 7 6 7 8 6 6
6 7 10 9 8 8 8 10 8 6 4 2 6 9 9 6 2 6 11 11 13 15 15 16 16 15 15 15 14 13 14 14 14 13 13 12 11 11 11 10 9 9 8 8 7 8 9 9 9 8 8 8 7 7 8 9 9 9 10 9 9 9 9 10 11 11 12 12 11 11 11 11 12 12 12 11 10 10 9 8 7 7 7 6 6 6 6 7 6 7 6 6 5 6 6 6 5
7 7 7 9 8 7 6 7 7 6 3 2 3 8 7 6 5 10 12 11 13 14 14 15 15 14 14 14 12 11 13 14 13 13 12 12 11 11 11 11 10 9 8 8 8 8 9 8 8 8 8 8 7 7 8 8 9 9 9 8 8 9 9 10 11 11 12 11 11 10 10 11 11 10 10 10 9 9 8 7 7 7 6 6 6 6 6 6 6 6 6 5 5 5 5 5 4
7 6 4 8 7 5 5 5 7 7 5 1 1 4 7 7 8 12 11 12 14 13 14 14 13 13 13 13 11 11 13 14 13 13 12 11 10 11 11 11 11 9 9 8 8 8 8 8 8 8 8 8 8 7 7 7 8 8 8 8 8 8 9 10 11 11 11 11 10 9 9 9 9 9 8 8 8 8 8 7 7 6 6 5 6 5 5 6 6 6 5 5 5 5 5 5 5
6 5 5 6 4 5 5 5 9 8 4 3 0 1 5 7 10 12 11 12 14 13 13 14 13 13 12 12 12 11 12 13 13 13 13 12 11 11 11 11 11 9 9 9 9 9 8 8 8 8 9 9 8 7 7 7 7 8 8 8 8 8 8 10 10 10 11 10 10 9 8 8 7 7 7 6 6 6 7 7 6 6 5 5 5 5 5 6 6 6 6 5 5 5 5 5 5
5 3 5 5 4 6 6 6 8 7 5 5 3 1 2 6 10 12 11 12 13 12 13 14 14 14 13 12 11 11 12 13 13 13 13 12 11 10 11 11 11 10 10 10 10 9 9 8 8 8 9 9 8 8 7 7 7 7 7 8 8 8 8 8 9 9 9 9 9 8 7 7 7 6 5 5 4 5 6 6 6 5 5 5 5 5 5 5 5 6 6 6 6 5 4 5 4
5 4 4 5 6 7 7 7 8 7 7 7 5 3 2 4 9 11 11 12 12 11 12 14 14 14 13 11 11 10 11 12 12 13 13 12 11 11 11 11 11 10 10 10 11 10 9 9 8 8 10 9 8 8 8 7 6 6 7 7 8 7 7 8 8 8 8 8 8 8 7 7 6 6 5 4 4 4 5 5 5 5 4 4 4 4 4 5 4 5 6 6 6 5 4 5 4
6 6 3 4 6 7 7 8 8 9 9 8 6 3 3 5 9 11 12 12 11 10 12 14 13 13 13 11 11 11 10 11 11 13 14 13 12 11 11 11 11 10 10 11 11 10 9 9 8 8 9 10 9 9 8 7 7 6 6 6 7 7 6 7 7 7 7 7 7 7 7 7 6 6 5 4 4 4 4 4 5 4 4 3 3 4 4 4 4 4 4 5 5 5 5 5 5
6 6 3 5 5 5 6 7 10 11 10 9 9 5 4 7 10 11 12 12 12 11 11 13 13 13 12 11 11 11 11 11 12 14 15 14 13 12 11 11 11 11 11 11 11 10 9 9 9 9 9 10 10 9 9 8 7 6 6 6 7 6 6 6 6 6 6 6 6 7 6 7 6 6 6 5 4 4 4 4 4 4 3 3 3 3 4 4 4 4 4 4 4 4 4 5 5
5 5 2 5 6 5 5 7 10 12 9 9 11 7 5 9 11 11 12 12 11 11 11 11 12 12 12 11 11 11 11 11 12 14 15 14 13 13 12 12 12 11 11 12 12 11 10 9 9 10 10 10 10 10 9 9 9 8 7 7 7 7 6 6 6 6 6 6 6 6 6 6 6 6 6 5 4 3 4 4 4 4 3 3 3 3 4 4 3 3 3 3 4 4 4 5 5
5 6 3 3 4 5 6 7 10 11 8 8 11 9 7 10 12 12 12 12 12 12 12 12 12 12 11 12 12 12 12 11 13 14 15 14 14 13 12 12 12 11 11 12 12 12 11 10 10 10 11 10 10 10 10 9 9 9 8 7 8 8 7 6 6 6 5 6 6 6 6 6 7 7 6 5 5 4 4 4 4 3 3 3 3 3 4 3 3 2 2 2 3 4 4 5 5
5 6 4 3 2 4 6 6 10 11 7 6 9 8 10 12 12 12 11 12 13 13 13 13 14 13 11 12 13 12 11 10 13 14 15 15 14 14 13 12 13 12 12 13 12 12 12 11 11 11 11 11 10 9 9 9 9 9 8 8 8 8 8 7 6 6 5 6 6 6 6 6 6 6 6 5 5 5 5 4 4 3 2 3 3 3 3 2 2 2 1 2 3 3 4 6 6
5 5 5 3 1 3 5 6 9 10 5 5 9 7 9 11 11 11 12 13 13 12 13 13 14 14 12 12 12 12 11 11 12 14 15 16 15 15 14 12 13 13 13 13 13 13 12 12 11 11 11 11 10 10 9 9 8 8 7 7 7 7 8 6 5 5 5 6 6 6 5 6 5 5 5 5 4 4 4 4 3 3 3 3 2 2 2 1 1 1 1 2 2 2 3 5 6
4 4 6 4 2 3 2 7 9 9 5 5 9 7 6 9 9 9 11 12 10 10 11 10 11 13 13 12 12 12 13 12 12 13 15 16 16 15 14 13 13 13 13 13 13 13 13 12 12 12 12 11 11 10 9 8 8 8 6 6 6 5 6 6 5 5 5 5 6 6 6 6 5 4 4 4 4 4 4 3 3 3 3 3 2 1 1 1 1 1 2 3 3 2 3 4 4
3 3 5 5 7 6 3 6 8 9 8 7 8 5 5 9 9 9 9 9 9 10 10 9 11 13 12 12 12 12 13 12 13 13 14 16 17 16 15 13 13 13 13 13 14 14 13 13 14 13 12 12 11 11 10 9 9 8 7 6 5 4 5 6 6 6 6 6 6 6 6 6 5 4 4 4 4 4 3 3 3 3 3 3 2 1 1 1 1 1 2 2 2 3 3 4 4
4 5 4 5 8 4 2 7 8 6 7 9 9 5 4 9 12 11 9 9 11 11 13 13 13 13 12 12 12 12 13 13 12 13 14 16 17 16 15 14 13 13 13 13 14 14 13 13 15 14 12 12 11 12 12 10 9 9 8 8 7 7 6 7 7 7 8 7 6 6 6 6 5 5 4 4 4 4 3 3 3 3 3 3 2 1 1 1 1 1 2 1 2 3 3 3 3
3 6 6 5 6 3 3 7 7 5 2 7 11 6 0 4 9 12 12 12 14 13 14 15 13 12 12 12 12 13 13 13 13 13 14 16 17 16 16 15 14 13 13 13 13 14 13 13 15 14 13 12 11 12 13 11 10 10 10 9 8 8 8 8 8 7 7 7 6 6 6 6 6 5 4 4 4 4 4 3 3 3 2 3 2 2 1 1 2 2 2 2 2 2 3 3 2
2 6 5 7 6 5 7 7 7 4 1 5 11 7 1 2 7 13 16 15 15 14 15 15 12 12 13 13 13 14 14 13 13 13 13 15 17 16 16 15 14 13 13 14 13 14 14 13 14 14 13 12 11 12 13 12 11 11 11 10 8 8 8 7 8 7 6 6 6 6 6 6 6 5 5 4 4 4 4 4 3 3 2 3 2 2 2 1 2 2 1 1 1 1 2 3 3
3 5 2 5 6 8 9 8 6 3 2 4 8 8 4 1 5 12 16 15 15 16 16 15 14 14 14 14 15 15 14 14 14 14 14 16 17 17 16 15 15 14 13 14 14 14 14 13 14 14 13 12 12 12 13 13 11 10 11 10 9 8 7 7 8 8 7 6 6 5 5 5 5 6 5 5 5 5 4 4 3 3 3 3 3 3 2 2 2 2 1 1 0 1 1 3 3
3 2 3 4 6 8 8 7 5 2 5 5 7 10 6 1 5 8 11 12 13 14 14 14 16 16 15 15 15 15 14 13 14 15 16 18 18 17 17 16 15 14 13 14 14 14 14 14 14 14 13 12 12 13 13 13 12 11 11 11 9 8 8 7 8 8 7 6 6 6 5 5 5 6 6 6 6 6 5 4 4 4 4 3 3 2 2 3 2 2 1 1 1 0 1 1 2
1 3 6 5 5 5 5 5 4 4 6 4 6 10 6 2 4 7 7 8 11 13 12 12 15 17 17 15 15 16 15 13 13 14 17 19 19 18 18 16 15 15 14 14 15 14 14 14 14 15 14 13 12 13 13 13 13 12 11 11 10 9 9 8 8 8 7 6 6 6 6 6 5 5 6 6 7 7 6 5 5 4 4 4 3 3 3 3 3 3 2 2 1 1 1 1 2
5 7 7 5 4 4 5 5 4 6 6 1 2 7 6 4 3 6 8 6 8 12 13 14 16 18 18 16 15 16 15 15 14 13 15 18 19 19 18 17 15 15 15 15 15 15 15 14 15 15 15 14 13 13 14 13 13 12 12 12 11 10 10 9 8 8 7 7 7 6 5 6 6 6 6 6 6 7 6 5 5 4 4 3 3 3 3 3 2 2 2 2 2 2 2 1 2
8 8 7 7 6 5 6 7 6 7 5 2 3 5 6 4 0 5 8 7 7 9 11 15 17 19 20 18 16 15 14 15 15 14 14 15 17 18 18 17 16 16 16 16 16 16 15 15 15 16 16 16 14 14 14 14 13 13 13 12 12 11 10 9 8 7 7 7 7 7 6 6 6 6 6 6 6 7 6 6 5 4 3 3 3 2 3 3 3 2 2 3 3 3 2 2 3
9 8 7 8 7 7 8 8 6 6 5 4 3 3 4 4 2 3 5 5 5 7 9 13 17 20 20 19 18 16 15 15 15 15 14 14 16 18 18 17 17 17 18 18 17 16 15 15 16 16 16 16 16 15 15 15 14 13 13 13 12 12 11 10 9 8 8 7 7 7 7 6 7 7 7 6 6 6 6 5 5 4 3 3 3 3 3 3 4 3 3 3 3 3 3 3 3
10 9 8 9 8 7 7 7 6 6 5 6 6 4 3 3 4 4 3 3 4 5 7 10 13 16 17 18 18 17 16 15 14 15 15 15 17 18 18 18 18 18 18 17 17 17 16 15 16 17 17 17 17 16 15 15 15 14 14 14 13 12 11 11 10 8 7 7 7 7 6 6 6 5 6 6 6 6 6 5 5 5 4 4 4 4 4 4 5 4 3 4 3 3 3 3 4
9 9 9 9 8 7 5 5 6 5 4 5 6 4 1 3 5 5 3 4 5 6 7 10 12 13 14 15 17 16 15 15 15 14 14 16 19 19 18 18 18 18 17 17 17 18 17 16 17 18 17 17 18 18 17 16 15 15 14 15 14 13 12 11 10 9 8 8 7 7 6 6 5 5 5 5 6 6 6 6 6 6 5 5 5 6 6 5 5 5 4 4 4 3 3 3 4
6 8 10 8 6 7 6 6 5 5 6 5 6 6 3 5 5 5 4 4 5 5 8 11 11 13 14 14 15 16 16 15 15 14 13 15 18 19 19 19 18 17 17 17 18 19 19 18 18 18 18 18 18 18 17 16 16 16 15 15 15 14 13 13 12 11 10 9 7 7 7 6 6 6 6 6 6 7 7 7 7 7 6 6 6 6 7 6 5 5 4 4 4 3 3 4 4
4 6 10 7 3 6 6 6 6 6 8 5 6 8 8 6 4 3 5 5 5 5 8 10 11 12 14 14 15 16 17 16 15 14 14 15 17 18 19 19 18 17 18 19 20 20 19 19 18 18 19 19 18 17 17 16 16 16 16 16 16 15 14 14 13 12 11 10 9 9 8 7 7 7 7 6 6 7 7 8 8 7 7 6 6 6 7 7 6 6 5 5 5 4 4 4 4
7 4 6 8 5 6 7 6 7 7 8 6 7 7 8 7 4 5 6 5 6 5 7 10 11 12 12 13 14 15 15 14 14 14 12 13 16 17 18 18 18 17 17 19 19 18 17 17 17 18 19 19 18 17 16 16 16 15 15 15 16 15 14 13 13 12 12 12 11 10 9 9 8 8 8 7 7 7 8 9 9 9 8 7 7 7 7 7 7 7 6 5 5 5 4 4 4
9 6 5 7 6 6 7 7 7 7 8 7 7 7 7 4 2 6 7 6 5 6 6 8 10 10 10 11 13 13 12 12 13 13 11 12 14 16 16 16 17 17 16 16 17 17 16 15 16 17 17 17 17 17 16 16 16 16 15 14 14 15 15 14 13 13 13 13 12 11 10 10 9 9 9 8 8 8 8 9 9 9 9 8 8 8 7 7 7 6 6 5 4 4 5 5 5
11 8 7 8 6 6 6 7 8 7 8 7 6 7 4 2 4 6 8 6 4 4 6 7 8 9 10 11 13 14 14 13 13 12 10 12 15 16 16 16 16 16 16 16 16 16 16 15 15 16 16 16 17 17 16 16 15 15 15 15 14 14 15 15 14 14 14 13 12 12 11 10 10 10 9 9 9 9 9 9 9 9 8 7 7 7 6 6 6 6 6 6 5 5 6 5 5
10 10 9 9 8 7 6 8 9 7 8 6 6 7 2 4 3 4 7 6 4 4 5 6 7 8 9 10 12 14 14 13 14 12 11 14 15 14 14 15 15 15 15 15 15 16 16 15 15 15 16 16 17 17 17 16 15 15 15 15 15 14 14 15 15 15 15 15 14 13 12 11 11 11 10 10 10 10 10 9 9 9 8 7 7 7 7 7 7 6 7 7 6 6 7 6 6
Wind_Direction
153 156 160 175 181 208 214 231 229 189 223 109 101 120 94 83 108 117 120 124 117 112 119 131 133 124 109 98 112 72 57 65 34 71 110 110 131 137 141 137 138 138 138 138 137 132 124 124 123 121 125 124 116 106 103 101 104 117 134 130 112 103 100 102 105 111 114 117 125 119 109 111 105 102 108 107 107 111 104 95 96 98 99 102 105 105 103 104 106 106 106 104 102 100 98 96 94
165 169 174 185 198 224 228 239 232 166 186 113 96 92 107 120 125 124 128 129 118 125 133 131 122 109 74 80 123 107 67 37 48 83 96 119 129 132 139 140 140 139 137 136 135 130 123 127 124 120 122 116 113 107 102 100 109 124 128 111 93 94 101 105 103 108 114 117 121 115 112 117 110 108 110 107 106 106 101 98 100 103 105 105 105 105 104 107 109 108 106 103 101 99 96 96 94
176 172 185 198 215 224 263 257 269 351 140 110 101 103 122 132 124 123 121 116 119 131 134 127 121 109 116 122 115 100 82 57 88 102 108 127 131 136 142 141 141 138 135 134 132 125 123 128 120 116 118 112 107 102 101 103 112 121 112 99 95 95 99 102 97 96 101 111 116 113 111 116 115 112 111 108 106 103 101 101 104 109 111 109 106 107 107 109 110 108 105 102 101 98 96 95 95
184 191 210 221 223 212 233 232 291 296 116 111 117 119 131 127 121 122 117 119 128 134 132 129 123 74 97 110 87 76 89 90 103 108 123 135 135 140 143 141 141 137 134 133 128 121 122 125 115 111 110 104 101 98 99 101 107 107 94 89 95 99 98 98 95 95 104 113 111 109 110 114 114 113 111 111 109 105 104 104 105 109 113 112 109 108 109 110 109 106 104 102 101 98 97 97 98
197 214 229 242 250 195 231 199 232 264 68 89 118 123 130 125 125 125 121 129 137 134 134 139 122 103 88 76 64 92 101 106 112 118 126 128 132 140 142 142 141 137 132 128 124 117 118 118 110 109 102 96 95 96 96 96 99 93 87 86 90 96 95 94 95 102 117 116 109 111 117 115 112 114 113 112 111 108 106 107 108 108 113 115 112 111 113 112 108 106 105 102 100 99 98 98 100
216 232 228 240 287 11 251 203 171 96 51 35 108 122 130 129 130 128 129 136 139 130 133 139 122 121 98 66 62 75 101 118 122 125 126 128 135 140 140 143 140 134 129 124 119 112 116 114 109 106 98 92 90 92 95 99 102 93 90 88 86 91 92 92 95 106 112 108 110 115 118 114 110 111 113 114 112 111 111 109 110 111 117 118 114 117 115 109 106 105 104 101 99 100 99 98 97
243 253 216 232 263 223 261 55 65 85 65 25 109 125 131 131 133 132 138 141 139 133 136 130 122 118 99 93 81 68 91 115 122 124 127 133 137 140 141 143 137 131 126 122 115 111 116 111 105 99 93 91 90 92 96 103 101 92 92 90 88 90 92 94 99 105 103 102 109 114 114 113 111 111 116 120 114 113 114 111 111 112 117 118 118 122 115 109 109 106 103 101 100 99 97 96 96
251 270 241 240 231 205 256 68 56 66 86 90 110 124 129 133 138 139 145 147 145 141 141 137 131 111 96 108 92 87 102 108 114 118 127 134 137 141 143 142 136 132 126 121 114 111 113 103 96 94 93 93 93 96 98 99 94 91 93 93 90 92 95 98 102 104 102 102 107 111 111 111 116 118 120 123 117 114 114 113 115 114 118 120 120 121 113 109 111 110 105 100 100 98 96 96 97
241 262 266 257 244 188 128 89 89 82 99 110 112 123 130 136 143 144 149 149 145 143 140 139 133 111 105 101 98 107 108 108 116 121 131 135 139 143 143 143 138 132 126 121 115 111 111 101 95 94 95 95 97 99 101 99 94 93 92 92 91 92 95 99 103 104 105 109 112 111 109 114 123 124 122 122 116 113 112 113 115 115 119 119 117 116 111 111 113 111 105 101 101 99 98 99 98
243 209 273 273 260 183 121 95 108 98 101 111 117 131 135 141 148 147 150 148 146 143 134 124 113 118 114 105 106 114 114 122 127 128 135 137 141 143 143 143 136 131 125 119 116 113 112 103 95 96 95 96 98 98 101 101 95 93 90 90 91 91 93 99 105 105 107 113 117 112 109 117 124 124 121 117 116 114 110 109 110 111 114 115 113 111 111 112 111 108 104 104 104 102 101 100 98
276 218 272 275 252 178 114 117 118 105 109 112 119 132 136 145 151 150 146 146 150 142 134 124 116 119 113 106 104 111 122 133 134 133 138 140 142 143 141 139 135 131 123 119 116 113 112 103 94 98 98 95 95 94 94 94 91 90 90 90 92 94 96 102 106 107 110 113 115 112 112 116 117 118 117 114 115 114 108 107 108 109 113 115 113 108 106 106 103 103 104 105 103 102 101 100 98
287 271 281 284 296 21 110 122 117 116 124 122 126 131 138 149 153 154 148 147 153 149 141 131 125 125 118 112 110 125 134 139 137 137 138 141 142 143 141 138 136 128 122 119 114 112 112 105 97 99 102 96 94 95 92 90 91 92 94 94 94 97 101 105 107 108 112 113 111 109 111 113 114 114 114 115 115 112 110 111 112 113 116 117 114 108 104 103 102 103 106 105 101 100 101 100 98
301 320 306 302 316 316 117 116 126 132 128 124 130 134 146 155 156 156 151 147 153 154 139 131 136 131 117 113 122 138 142 140 139 139 141 144 142 143 141 138 135 127 122 117 111 109 108 106 101 98 100 95 93 96 99 99 99 97 97 97 98 98 103 107 107 108 111 111 109 109 110 112 114 116 114 113 113 114 114 112 111 112 114 116 113 108 105 103 105 107 102 98 99 102 101 98 96
321 340 309 287 280 258 108 118 146 141 125 124 128 137 152 153 152 153 151 145 142 139 127 133 143 126 119 124 138 150 144 142 143 142 143 144 143 144 142 139 134 127 123 115 110 108 105 104 100 98 97 94 92 94 101 104 103 100 95 97 98 99 102 104 104 105 106 108 109 109 110 110 113 116 114 112 114 116 115 112 110 112 115 116 113 109 105 102 104 103 95 98 108 109 102 97 95
318 331 293 265 231 189 115 133 144 136 130 133 135 140 144 140 148 150 150 140 125 126 125 137 148 134 144 150 153 151 145 145 144 143 144 143 143 143 141 139 135 128 120 114 108 107 107 101 97 96 94 97 96 93 97 100 101 98 94 96 98 100 100 100 101 101 103 106 108 107 109 110 112 115 114 113 114 114 112 109 108 111 114 114 111 108 105 103 102 99 102 116 118 108 101 98 95
309 296 269 260 231 175 160 151 137 134 140 137 143 146 136 135 145 140 134 131 127 135 134 138 148 156 157 152 143 142 143 145 144 143 144 143 143 142 142 142 136 128 118 112 107 107 107 100 96 95 96 100 98 95 94 95 96 96 93 95 97 99 100 100 100 101 103 104 105 106 107 109 112 116 118 118 117 117 115 111 110 112 112 111 108 105 106 106 104 108 124 128 112 104 102 98 95
275 274 260 252 233 160 142 154 147 133 138 141 152 153 136 133 136 125 126 137 134 131 124 125 129 142 141 134 134 138 141 143 144 146 145 146 148 147 147 145 140 133 123 114 109 110 107 100 98 99 101 103 101 98 93 89 92 96 95 95 97 98 100 101 101 102 103 104 105 104 103 107 112 116 119 122 124 126 123 118 116 116 114 110 107 107 111 111 114 128 133 117 105 101 97 94 94
267 272 266 279 56 105 104 133 134 124 137 145 154 153 137 135 136 134 137 139 137 129 119 117 110 108 117 123 132 137 142 145 148 150 150 152 154 152 150 150 147 139 130 121 117 115 108 103 102 105 107 107 107 105 100 90 86 94 100 100 100 101 102 102 104 106 106 107 107 104 100 100 106 112 117 122 126 127 123 119 117 117 115 113 114 115 114 115 124 134 120 102 98 95 93 95 95
277 281 289 23 58 109 116 109 124 132 140 143 151 152 138 136 137 146 146 139 146 139 127 126 120 115 120 128 135 139 145 149 153 155 154 155 156 154 151 150 147 140 135 130 126 121 111 106 106 108 109 112 113 112 113 108 92 88 96 102 104 105 106 106 105 105 107 107 105 105 108 109 108 112 119 121 120 119 116 115 114 114 114 115 116 113 112 117 123 118 102 90 87 89 97 102 100
288 294 347 49 71 119 126 118 130 135 139 140 147 146 137 138 143 158 149 141 152 146 138 140 136 135 135 136 139 143 150 152 156 159 156 156 156 154 151 150 147 143 138 132 129 124 119 114 111 110 110 113 115 115 118 117 108 94 93 102 106 107 109 109 105 102 101 101 101 107 116 119 117 116 115 114 113 112 109 107 107 108 113 114 109 106 107 110 109 101 90 82 81 89 98 98 97
321 340 29 77 99 115 114 117 137 134 137 140 143 142 137 141 149 153 146 143 151 149 147 146 145 145 142 142 144 148 153 155 159 162 158 157 157 154 152 149 143 140 134 131 130 129 128 122 118 117 112 111 112 115 116 115 114 109 102 101 103 105 107 109 111 110 106 101 104 109 112 113 114 115 113 113 115 115 110 107 108 110 113 111 106 105 105 101 101 99 91 91 93 93 93 92 93
292 50 68 96 106 109 108 120 138 132 135 142 145 141 136 142 147 149 149 138 135 143 146 143 146 147 145 145 146 151 157 158 161 163 161 159 158 155 151 146 140 140 138 133 130 131 133 126 123 121 113 109 109 113 113 111 113 112 106 102 99 99 102 106 111 115 114 112 112 110 108 108 111 116 118 119 122 122 118 116 118 118 115 112 110 112 110 101 101 100 94 95 95 93 89 90 91
291 71 70 85 95 112 123 132 138 134 144 150 144 135 135 142 139 143 133 93 111 129 137 140 143 145 146 146 147 155 159 160 163 163 164 162 160 157 152 151 146 145 143 135 131 133 136 130 125 120 115 112 110 113 112 110 112 111 107 105 101 98 100 102 106 111 112 114 116 115 114 113 114 115 117 119 119 118 117 116 117 118 117 114 113 109 103 98 95 92 90 87 88 92 92 92 92
313 63 69 84 97 118 132 134 142 143 148 141 134 138 142 142 134 138 117 99 115 124 130 137 141 144 147 147 151 156 158 161 163 162 164 163 162 157 154 154 147 146 145 138 134 136 138 135 129 123 119 116 115 115 110 109 110 110 108 107 104 102 103 102 105 107 109 112 116 119 119 117 115 113 114 114 112 110 110 112 114 114 112 109 106 101 97 96 95 92 90 88 87 92 94 95 96
354 66 83 102 105 119 131 135 145 142 138 136 146 148 140 137 131 130 121 119 129 129 131 138 141 145 149 151 153 155 158 160 160 161 163 163 161 157 157 157 150 149 148 144 139 137 140 139 135 129 123 119 117 117 110 109 111 111 110 109 108 107 107 106 108 108 110 112 113 116 117 116 114 113 113 111 110 109 109 112 112 110 108 105 102 97 94 91 90 88 87 87 88 89 91 92 95
77 89 95 114 114 122 132 136 149 141 141 159 153 140 129 135 130 115 120 133 136 132 135 142 146 148 153 155 154 157 160 160 160 162 162 162 162 161 163 161 158 156 150 149 142 138 141 140 139 134 128 124 120 119 114 111 113 112 111 111 110 111 111 109 110 111 111 112 114 113 111 113 114 113 113 112 112 112 112 112 110 109 104 100 97 91 84 79 78 80 80 84 85 85 87 88 91
110 107 93 105 114 120 133 136 142 134 146 176 154 132 131 147 164 126 130 143 143 139 140 147 152 152 156 156 155 159 161 161 162 163 163 163 165 166 167 167 164 157 152 154 144 139 144 143 141 138 133 129 126 123 119 116 115 115 113 113 113 113 112 112 111 111 110 111 112 111 107 109 112 112 114 115 117 115 114 112 108 106 100 93 89 83 74 68 68 70 70 76 81 83 85 85 85
129 128 105 107 112 111 132 140 140 136 137 204 145 128 133 160 205 129 139 152 148 145 145 152 158 155 158 157 155 160 162 162 163 166 167 167 170 171 169 170 167 159 159 158 146 144 148 145 141 139 138 133 131 128 125 124 121 119 116 116 117 115 114 115 113 110 109 110 110 109 106 105 108 111 115 117 118 117 114 111 107 102 96 91 81 74 67 63 66 67 60 62 72 81 86 83 83
146 157 126 123 127 112 122 138 146 151 120 5 138 136 152 166 131 126 145 155 149 150 151 157 162 158 159 158 157 161 162 163 166 171 171 171 173 173 171 170 168 163 160 157 151 151 148 144 142 140 142 138 135 133 130 130 127 125 122 121 121 118 117 116 114 113 113 113 111 109 106 104 108 112 115 119 119 117 114 111 108 101 94 88 75 66 62 63 66 65 58 56 64 74 80 77 77
159 184 169 141 147 128 119 137 150 154 127 101 232 162 163 149 129 140 153 155 153 157 157 160 164 161 161 160 160 163 163 167 171 173 172 174 175 174 173 169 169 164 157 158 158 155 147 144 145 144 146 142 138 137 135 134 132 131 129 127 127 122 122 121 118 118 118 119 116 112 108 105 108 113 116 120 119 118 116 112 109 104 96 85 74 64 62 64 58 52 48 50 57 62 65 63 63
172 179 194 170 159 137 139 156 158 155 136 144 251 162 154 138 139 151 158 162 163 162 160 164 166 163 163 163 166 165 165 171 173 173 172 175 176 175 173 169 171 165 157 162 159 156 150 148 148 146 148 146 142 141 138 137 136 136 134 133 133 129 128 127 125 126 125 126 124 119 116 111 111 112 116 117 118 121 119 115 111 106 99 88 76 63 61 62 53 44 35 34 45 50 59 60 61
177 160 196 176 140 135 145 163 169 162 143 165 177 143 159 153 151 157 163 170 173 169 163 166 167 166 165 166 171 168 166 172 174 174 172 175 177 176 174 170 172 168 161 162 158 158 156 152 153 150 149 148 145 144 140 138 137 138 138 137 137 135 134 131 130 131 131 132 131 128 123 119 117 114 114 117 120 121 118 115 113 109 104 94 79 64 63 62 55 47 32 27 32 31 49 61 59
172 188 204 157 143 148 147 153 173 164 143 171 198 159 153 172 157 158 170 177 182 179 167 167 169 168 167 168 172 171 167 171 176 175 172 176 178 176 175 171 171 170 164 161 159 161 159 156 157 153 151 149 146 145 141 139 140 141 141 140 141 142 140 137 136 134 135 135 133 132 131 127 124 121 118 121 123 122 119 116 116 115 110 98 85 72 71 66 57 53 38 29 25 15 33 51 48
180 201 202 137 147 158 148 148 166 170 160 171 191 170 144 166 165 165 175 182 187 186 173 169 170 170 171 171 173 174 172 173 176 175 174 176 175 175 175 171 171 169 165 164 162 163 162 158 158 154 151 150 149 147 143 142 146 147 147 145 146 148 147 143 142 141 139 138 136 136 136 133 130 127 125 126 126 126 122 114 114 116 111 103 99 92 83 71 60 54 42 32 23 13 22 35 33
193 197 182 144 160 174 153 145 159 171 173 169 175 176 152 161 171 174 176 183 190 188 179 172 172 172 172 175 177 177 178 177 175 174 176 176 173 173 173 170 171 170 167 166 162 162 162 158 156 153 153 152 149 148 147 148 153 156 156 152 151 154 152 146 147 148 146 141 137 139 138 136 136 133 131 131 129 129 127 118 116 119 113 109 106 101 90 78 67 53 44 35 18 8 13 22 24
201 194 196 155 164 171 136 125 150 167 171 174 183 178 159 167 174 180 177 181 193 187 179 176 174 175 175 179 181 179 182 179 173 174 175 175 174 173 171 170 172 171 168 165 163 163 162 161 159 156 157 154 151 154 158 159 161 163 163 159 160 162 159 155 155 154 151 143 138 142 144 140 141 139 136 136 131 129 126 120 123 122 117 114 99 90 87 80 72 52 43 33 8 5 15 24 29
206 188 194 182 175 148 129 133 151 171 176 177 188 179 172 179 176 182 178 177 193 188 180 182 178 178 181 183 181 180 184 178 172 174 175 176 175 173 171 172 173 171 169 168 168 167 165 166 164 159 158 159 160 164 166 168 166 165 167 167 166 164 163 162 163 161 155 147 141 144 147 146 146 144 143 139 133 131 127 124 127 122 119 110 87 78 79 75 69 47 40 28 6 17 23 31 36
193 192 183 196 190 115 128 148 158 178 195 176 179 183 186 187 177 178 177 180 194 190 183 185 182 182 184 185 184 181 181 178 174 175 177 179 177 175 174 175 177 176 173 174 174 171 169 170 169 164 162 165 171 171 170 173 171 169 169 169 164 159 162 165 164 165 158 148 148 149 149 152 151 146 147 143 137 137 133 130 129 121 113 106 92 85 83 78 68 43 38 29 11 27 30 35 33
183 186 185 176 66 81 133 152 165 179 205 174 171 193 195 180 173 174 180 188 195 193 188 186 184 185 185 188 187 183 181 181 179 178 180 181 179 177 176 178 181 181 179 179 178 174 171 173 172 169 167 170 175 175 175 175 174 173 167 165 163 156 161 164 157 159 159 152 155 156 154 157 153 147 150 146 141 139 136 137 134 128 123 118 110 100 98 104 94 49 53 39 7 31 57 50 37
201 185 195 174 139 269 188 153 174 176 187 190 172 191 198 162 159 176 190 195 196 198 195 193 194 189 186 188 189 186 184 182 183 182 182 182 180 178 178 180 182 184 184 183 181 178 176 176 174 172 172 174 177 178 178 176 174 174 164 158 162 152 155 161 157 160 163 159 160 163 163 164 159 156 158 153 147 141 139 145 142 138 139 136 130 123 138 144 131 80 58 42 359 12 64 67 57
199 201 205 156 157 241 285 142 171 175 191 208 174 183 204 164 163 183 193 198 200 197 193 203 210 196 187 188 189 191 187 183 185 184 182 182 181 179 179 180 182 185 187 186 185 182 179 178 175 175 175 176 179 178 177 175 172 174 170 166 171 169 164 171 177 176 172 172 173 170 171 172 170 169 170 163 157 148 143 148 149 147 146 147 151 150 154 144 123 88 65 43 8 9 28 57 67
184 198 197 133 145 211 259 151 171 192 205 205 188 207 217 170 173 180 178 189 196 192 191 200 204 197 191 190 189 194 191 185 186 186 182 180 181 179 178 181 184 187 188 189 189 184 181 178 176 176 176 178 181 179 177 174 175 179 181 181 185 187 187 186 188 184 177 180 180 171 170 176 178 178 182 178 169 159 155 156 156 155 152 158 166 154 154 163 149 102 60 25 22 15 1 26 62
184 166 172 156 147 182 219 184 194 226 204 184 199 225 267 168 186 178 171 186 190 188 195 197 196 194 194 193 191 194 193 187 185 186 184 182 183 181 180 184 188 189 188 188 189 185 181 178 177 177 177 179 181 181 179 177 179 183 188 194 194 193 194 189 189 187 182 183 178 169 170 178 182 186 186 186 185 175 169 170 167 167 170 169 170 167 180 174 124 93 62 25 20 15 353 357 27
115 111 165 191 184 199 226 224 226 259 33 168 200 218 230 236 208 177 170 183 186 188 196 196 195 197 197 196 194 195 194 190 186 185 187 188 187 185 185 187 190 191 186 184 186 184 181 180 179 179 180 181 181 183 184 181 184 186 190 197 196 196 197 186 185 187 184 182 176 171 173 177 184 191 191 190 193 188 183 182 175 180 186 178 181 186 191 150 104 93 83 63 22 6 355 355 358
74 90 190 206 201 208 222 235 236 258 284 205 195 208 221 203 184 173 169 179 186 188 194 196 197 200 200 198 196 197 196 193 190 186 187 191 190 189 190 189 190 191 185 182 184 182 180 181 180 181 184 184 183 185 187 187 188 188 190 193 192 193 192 183 182 183 180 180 178 176 178 180 186 193 196 196 196 196 195 192 185 189 192 186 193 193 176 153 134 133 148 159 130 22 3 357 355
77 115 210 196 203 209 214 235 241 237 256 239 186 196 221 146 157 172 172 185 191 187 190 195 198 200 201 199 197 197 197 196 195 190 188 192 192 192 194 191 190 190 186 183 183 181 180 181 182 186 188 188 188 188 190 191 191 191 192 192 190 188 185 178 176 178 180 184 187 188 189 192 195 195 197 199 199 199 199 201 203 198 194 190 193 192 178 170 165 164 177 187 169 23 352 335 328
175 199 209 189 195 211 218 231 249 240 238 243 183 195 228 250 171 179 187 197 192 185 185 189 195 200 201 199 198 196 195 197 197 194 191 192 194 196 196 192 192 192 188 185 185 182 182 183 183 187 191 192 192 191 192 193 193 194 195 193 192 188 184 180 180 183 187 192 197 198 198 200 201 201 199 199 200 202 202 209 215 206 196 191 191 196 193 184 181 179 182 188 191 246 272 279 288
225 224 212 193 191 209 226 215 225 238 222 200 194 200 222 248 171 163 179 181 175 183 185 181 189 199 200 200 198 195 194 195 195 196 194 193 195 197 196 192 193 194 191 190 190 186 184 186 185 186 192 195 195 194 194 194 194 197 197 196 195 192 190 189 191 195 196 200 204 203 202 201 203 207 205 202 201 200 201 208 216 213 202 200 201 203 198 189 196 194 195 210 209 223 242 238 255
217 225 207 202 205 201 221 214 214 230 204 153 224 213 221 247 96 136 163 160 157 171 177 178 188 198 198 198 197 193 192 193 192 194 196 195 195 196 196 192 191 193 194 194 193 190 187 187 187 187 191 194 197 196 194 196 197 197 199 199 198 196 196 200 203 204 203 205 208 206 205 205 204 207 207 207 205 199 200 205 210 211 208 212 215 211 201 198 210 217 221 235 226 219 224 222 235
209 217 203 206 212 207 218 215 214 228 200 167 195 216 222 217 136 113 155 168 167 167 169 176 189 198 197 195 194 190 189 191 191 192 195 195 193 195 195 191 190 193 195 195 194 193 190 188 188 191 193 194 197 198 196 197 199 199 199 200 201 199 199 205 210 212 208 206 209 209 210 211 209 210 209 208 206 201 200 201 203 207 212 219 220 215 212 207 213 225 236 247 237 220 222 221 228
205 216 217 221 223 220 227 218 214 231 210 173 170 201 226 184 134 109 134 174 196 201 188 175 184 196 195 192 190 187 186 190 191 191 193 192 191 195 196 192 193 195 195 194 193 191 191 189 188 191 194 196 198 200 198 199 200 201 201 201 204 205 205 208 212 215 213 209 211 211 215 219 215 212 209 206 206 206 205 203 204 207 212 220 220 213 211 211 216 222 232 247 243 225 226 231 230
199 211 222 228 230 228 238 243 243 254 239 189 187 222 253 118 134 136 147 185 196 207 203 185 180 185 188 190 189 187 187 188 189 190 192 190 190 195 196 195 196 196 195 193 190 189 190 189 189 192 196 198 200 202 201 202 203 203 204 204 206 208 210 212 213 214 216 215 217 215 217 223 222 216 209 204 205 207 211 213 210 209 210 218 219 215 215 214 213 221 227 238 246 239 234 240 238
179 200 217 227 254 249 231 234 246 262 257 217 203 234 217 150 156 155 164 189 187 192 198 189 179 175 179 185 187 188 188 187 187 189 191 191 191 194 195 197 198 196 195 192 189 190 190 189 190 192 195 199 201 203 204 205 205 206 207 208 209 210 211 214 215 215 217 218 220 221 219 220 220 215 208 203 201 204 211 214 213 212 212 216 219 216 219 217 215 226 230 231 240 240 235 238 241
193 205 210 198 252 264 239 236 228 228 245 222 197 229 229 198 183 162 168 167 158 174 180 174 171 172 177 180 183 186 188 187 186 187 189 191 192 193 195 198 199 196 195 193 191 191 191 191 193 193 195 200 202 204 206 206 207 209 211 212 212 212 213 216 217 217 218 219 219 220 220 218 213 209 206 202 201 203 208 210 209 210 212 217 220 218 217 216 219 227 232 233 238 236 237 238 233
242 277 217 191 209 224 215 237 235 221 237 227 200 224 240 228 193 161 162 135 119 143 159 162 166 171 176 177 179 182 182 183 185 184 185 186 189 193 194 196 198 197 195 193 192 192 193 194 196 197 198 200 202 205 205 206 208 210 212 214 214 215 216 217 219 219 218 219 219 218 218 216 212 207 206 207 208 207 206 206 207 210 213 216 217 218 216 213 218 227 233 235 229 224 236 243 236
236 280 232 203 227 231 213 223 233 233 240 231 212 219 229 230 134 126 128 109 109 135 151 159 163 166 172 172 169 168 168 175 182 181 177 177 184 192 194 194 195 194 192 191 189 191 195 194 194 198 199 199 202 206 205 206 209 211 212 213 213 215 218 219 220 220 219 218 219 220 218 215 213 210 208 209 212 212 207 206 209 211 213 214 214 217 215 212 218 227 238 243 229 223 237 243 243
203 225 219 207 219 239 235 223 224 239 247 234 228 228 205 95 65 95 110 110 108 126 146 156 158 160 166 169 169 169 170 177 179 172 174 183 185 189 193 191 190 188 186 186 187 188 192 192 193 194 194 196 201 204 205 207 210 211 212 213 214 215 217 221 221 221 220 220 220 221 219 215 212 212 212 212 213 213 209 209 211 212 212 211 210 214 213 213 221 227 237 246 241 236 245 248 247
200 205 214 213 210 220 230 221 216 232 248 240 241 242 185 86 77 102 114 123 121 133 152 154 156 155 157 168 178 177 173 177 175 167 180 191 181 182 192 187 181 182 182 183 184 185 187 189 190 190 191 196 201 203 204 206 208 212 213 214 216 217 218 221 222 221 221 221 220 220 218 216 214 213 214 215 215 212 210 209 212 212 212 213 210 214 220 222 227 231 237 241 238 235 241 246 247